GFSMW_700_temp_003.txt.gz
Temp
5 5 5 5 5 5 5 5 6 6 6 6 6 6 5 5 5 5 5 5 5 4 4 4 3 3 3 3 4 4 5 5 5 5 4 5 4 4 4 4 3 3 3
5 5 5 6 5 4 5 5 5 5 6 6 6 5 5 5 5 5 5 5 4 4 4 3 3 3 3 3 4 4 4 5 5 5 5 5 5 4 4 3 3 2 2
6 6 5 5 5 5 5 6 5 5 6 5 5 5 5 5 5 4 4 4 4 3 3 3 3 3 3 3 3 3 4 4 4 5 5 5 5 5 4 3 2 1 1
6 6 6 5 5 5 5 5 6 6 5 5 5 5 5 4 4 4 4 4 3 3 3 2 2 2 2 2 3 3 4 4 4 4 4 4 4 4 5 5 4 3 2
6 6 6 5 5 5 5 6 6 5 5 5 5 5 4 4 5 4 4 3 3 3 2 2 2 2 2 2 2 2 3 3 3 3 3 2 2 2 2 4 3 2 2
5 5 6 5 5 5 5 6 5 5 5 5 5 5 5 5 5 4 3 3 3 2 2 2 2 2 1 2 2 2 2 3 3 2 2 2 2 2 1 2 2 2 2
4 4 5 5 5 5 6 6 5 5 5 5 5 5 5 4 4 3 3 3 3 2 2 2 1 1 1 1 1 1 2 2 2 1 1 1 0 -0 -1 -1 -0 1 1
3 4 5 5 5 5 5 6 5 5 5 5 5 5 4 4 3 3 3 3 2 2 2 1 1 1 1 1 1 1 1 1 1 0 -0 -1 -2 -2 -2 -2 -2 0 0
3 4 4 5 5 5 5 5 5 5 5 5 5 5 4 3 3 3 3 2 2 2 1 1 1 1 1 0 0 1 0 0 -0 -1 -2 -2 -3 -3 -4 -4 -4 -4 -2
4 4 4 4 5 5 5 5 5 5 5 5 4 4 3 3 3 2 2 2 2 1 1 1 1 0 0 -0 -0 -0 -0 -1 -1 -2 -3 -3 -4 -4 -5 -5 -6 -6 -7
4 4 4 5 5 5 5 5 5 5 4 4 4 3 3 3 2 2 2 1 1 1 0 0 -0 -0 -0 -1 -0 -1 -1 -2 -2 -3 -4 -5 -5 -6 -6 -7 -8 -8 -8
4 4 4 5 5 5 5 5 5 4 4 3 3 3 2 2 2 2 1 1 0 0 0 -0 -1 -1 -1 -1 -1 -2 -2 -3 -3 -4 -5 -6 -6 -7 -8 -8 -9 -9 -9
4 5 5 5 5 5 5 4 4 4 3 3 3 2 2 2 2 1 1 0 0 -0 -0 -1 -1 -1 -1 -1 -2 -2 -3 -4 -5 -5 -6 -6 -7 -8 -9 -9 -9 -9 -9
4 5 5 4 4 4 4 4 4 3 3 3 2 2 2 2 1 1 0 0 -0 -0 -1 -1 -1 -2 -2 -2 -2 -3 -4 -5 -6 -6 -7 -8 -8 -9 -10 -10 -10 -10 -11
4 5 5 5 4 4 4 3 3 3 2 2 2 1 1 1 1 0 -0 -0 -1 -1 -1 -1 -2 -2 -2 -3 -3 -4 -5 -5 -6 -7 -8 -8 -9 -10 -10 -10 -11 -12 -12
4 4 4 3 3 3 3 3 3 2 2 1 1 1 1 1 0 -0 -0 -0 -1 -1 -2 -2 -2 -3 -3 -4 -4 -5 -5 -6 -7 -8 -9 -9 -10 -10 -10 -11 -12 -14 -14
3 3 3 3 3 2 2 2 2 1 1 1 1 1 0 0 0 -0 -0 -1 -1 -2 -2 -2 -3 -3 -4 -4 -5 -5 -6 -7 -8 -9 -9 -10 -10 -11 -11 -12 -13 -13 -14
3 3 2 2 1 1 1 1 1 1 0 0 0 -0 -0 -0 -0 -1 -1 -1 -2 -2 -3 -3 -3 -4 -5 -5 -5 -6 -7 -8 -9 -9 -10 -10 -11 -12 -12 -13 -12 -13 -14
2 2 1 1 1 1 0 0 0 0 -0 -0 -0 -0 -0 -0 -1 -1 -1 -2 -2 -3 -3 -4 -4 -5 -5 -6 -6 -7 -8 -9 -9 -10 -10 -11 -12 -13 -13 -13 -13 -13 -14
2 1 1 1 0 0 0 -0 -0 -1 -1 -0 -0 -1 -1 -1 -1 -2 -2 -3 -3 -3 -4 -5 -5 -5 -6 -6 -7 -8 -9 -9 -9 -10 -11 -12 -13 -13 -13 -14 -14 -14 -14
2 1 0 0 0 0 -0 -0 -1 -1 -1 -1 -1 -1 -1 -1 -2 -2 -3 -3 -4 -4 -5 -5 -6 -6 -7 -8 -8 -9 -9 -9 -10 -11 -12 -13 -13 -13 -14 -14 -15 -15 -14
2 2 1 0 -0 -0 -1 -1 -1 -1 -1 -1 -1 -1 -2 -2 -3 -3 -3 -4 -4 -5 -5 -6 -6 -7 -8 -8 -9 -9 -9 -10 -12 -12 -13 -13 -13 -14 -14 -15 -15 -15 -15
2 1 0 -0 -0 -0 -1 -1 -1 -1 -1 -2 -2 -2 -3 -3 -3 -4 -4 -4 -5 -5 -6 -6 -7 -8 -8 -8 -8 -9 -10 -11 -12 -13 -13 -14 -14 -14 -15 -15 -15 -15 -15
1 0 0 -1 -1 -1 -1 -1 -2 -2 -2 -2 -3 -3 -3 -4 -4 -4 -5 -5 -5 -6 -6 -7 -7 -7 -8 -8 -9 -10 -11 -12 -12 -13 -13 -14 -15 -15 -15 -15 -16 -16 -15
0 -0 -1 -1 -1 -1 -2 -2 -2 -2 -3 -3 -3 -3 -4 -4 -5 -5 -5 -6 -6 -6 -7 -7 -7 -7 -8 -9 -10 -11 -12 -13 -13 -13 -14 -15 -15 -15 -15 -16 -16 -16 -16
-0 -1 -1 -1 -2 -2 -2 -2 -3 -3 -3 -3 -4 -4 -5 -5 -5 -6 -6 -6 -7 -8 -8 -8 -8 -9 -10 -11 -11 -12 -13 -13 -14 -14 -14 -15 -15 -15 -15 -15 -15 -16 -16

GFSMW_700_temp_006.txt.gz
Temp
6 6 6 5 5 5 5 5 6 6 6 6 6 6 6 6 6 6 5 5 5 5 5 4 4 4 4 4 3 3 4 4 4 4 4 4 4 4 4 4 4 4 3
5 6 6 6 6 5 5 5 5 6 6 5 5 5 5 5 5 5 5 5 4 4 4 4 3 3 3 3 3 3 3 3 4 4 3 3 4 4 4 4 3 3 3
6 6 6 5 6 5 5 5 5 5 5 5 5 5 5 5 5 5 5 2 4 4 4 3 3 3 3 2 2 2 2 3 3 3 4 4 4 4 4 3 3 2 2
6 6 6 6 5 5 6 5 5 5 6 5 5 5 5 5 4 4 4 3 3 3 3 3 3 2 2 2 2 2 2 2 3 3 3 3 3 3 4 4 4 4 3
5 6 6 6 5 5 5 5 5 5 6 5 5 5 4 5 4 4 4 4 3 3 3 2 2 2 2 2 2 2 2 2 2 2 2 2 2 2 2 3 3 3 2
5 5 5 6 5 5 5 5 5 5 5 5 5 5 5 4 5 4 4 4 3 3 3 2 2 2 2 2 2 1 1 1 1 2 2 2 2 2 1 2 2 2 2
3 4 4 5 5 6 5 5 5 5 5 5 5 5 5 4 3 4 4 3 3 2 2 2 1 1 1 1 1 1 1 1 1 1 1 1 1 1 0 0 1 0 0
2 3 3 3 5 5 5 5 5 5 5 5 5 5 4 3 3 3 3 3 2 2 2 1 1 1 1 1 1 1 0 0 0 0 0 -0 -0 -0 -1 -1 -1 -0 -1
2 3 3 3 4 5 4 5 5 5 5 5 5 5 4 3 3 3 3 3 2 2 1 1 1 1 1 1 0 0 0 -0 -0 -0 -1 -1 -1 -2 -2 -2 -3 -3 -1
1 3 3 3 4 4 4 5 5 5 5 5 5 5 3 3 3 3 3 2 2 1 1 1 0 0 0 0 -0 -0 -0 -1 -1 -1 -1 -2 -2 -3 -3 -3 -4 -4 -4
1 3 3 3 4 4 4 5 5 5 5 5 5 3 3 4 3 3 2 2 2 1 1 0 0 0 -0 -0 -0 -1 -1 -1 -1 -1 -2 -3 -3 -3 -4 -5 -5 -5 -6
1 3 3 4 4 5 5 5 5 5 5 5 4 4 3 3 3 2 2 1 1 0 0 0 -0 -0 -0 -1 -1 -1 -1 -1 -2 -2 -3 -3 -4 -5 -5 -6 -7 -7 -8
1 3 3 4 4 5 5 5 5 5 5 5 4 3 3 2 2 2 1 1 0 0 -0 -0 -0 -1 -1 -1 -2 -2 -2 -2 -3 -3 -4 -4 -5 -6 -7 -7 -8 -9 -9
1 3 3 4 4 4 5 5 4 4 4 3 3 3 2 2 1 1 1 0 -0 -0 -0 -1 -1 -1 -2 -2 -2 -2 -2 -3 -4 -4 -5 -6 -6 -7 -8 -9 -9 -10 -10
1 3 4 4 4 4 4 4 4 4 3 3 3 2 2 1 1 1 1 -0 -0 -1 -1 -1 -2 -2 -2 -2 -2 -2 -3 -4 -4 -5 -6 -7 -7 -8 -9 -10 -10 -11 -11
1 3 4 4 4 3 3 3 3 2 2 2 2 2 1 1 1 0 -0 -0 -1 -1 -2 -2 -2 -2 -2 -2 -3 -4 -4 -5 -5 -6 -7 -8 -8 -9 -10 -10 -11 -12 -13
2 4 4 3 3 2 2 2 2 1 1 1 1 1 1 0 -0 -0 -1 -1 -1 -2 -2 -2 -2 -2 -2 -3 -4 -4 -5 -5 -6 -7 -8 -8 -9 -10 -10 -11 -12 -12 -13
1 2 2 2 2 2 1 0 0 1 1 1 1 0 0 -0 -1 -1 -1 -1 -2 -2 -2 -2 -2 -3 -4 -4 -4 -5 -5 -6 -7 -8 -9 -9 -10 -10 -11 -12 -12 -13 -14
2 1 1 1 1 1 1 0 0 0 0 -0 -0 -0 -1 -1 -1 -1 -2 -2 -2 -2 -2 -3 -3 -4 -4 -5 -5 -5 -6 -7 -8 -9 -9 -10 -10 -11 -12 -12 -13 -13 -14
1 1 1 1 1 1 0 -0 -0 -0 -1 -1 -1 -1 -1 -1 -2 -2 -2 -2 -2 -3 -3 -3 -4 -4 -5 -5 -6 -6 -7 -8 -8 -9 -10 -10 -11 -12 -13 -13 -13 -13 -14
1 1 0 0 -0 -0 -0 -1 -1 -1 -1 -1 -1 -1 -2 -2 -2 -2 -2 -3 -3 -3 -4 -4 -5 -5 -5 -6 -6 -7 -8 -8 -9 -10 -11 -12 -12 -13 -13 -14 -14 -14 -14
1 1 0 0 -0 -1 -1 -1 -1 -1 -2 -2 -2 -2 -2 -2 -2 -3 -3 -3 -4 -4 -5 -5 -5 -6 -6 -7 -7 -8 -8 -9 -10 -11 -12 -12 -13 -13 -14 -14 -14 -14 -14
1 -0 -0 -0 -1 -1 -2 -2 -2 -2 -2 -2 -2 -2 -3 -3 -3 -3 -3 -4 -4 -4 -5 -5 -6 -7 -7 -8 -8 -9 -9 -10 -11 -12 -13 -13 -13 -14 -14 -14 -14 -14 -15
0 -0 -1 -1 -1 -1 -2 -2 -2 -2 -2 -2 -3 -3 -3 -3 -3 -4 -4 -4 -5 -5 -6 -6 -7 -7 -8 -8 -8 -9 -10 -11 -12 -12 -13 -13 -14 -14 -15 -15 -15 -15 -15
-0 -1 -1 -2 -2 -2 -2 -2 -2 -3 -3 -3 -3 -3 -3 -4 -4 -4 -4 -5 -5 -6 -6 -7 -7 -8 -8 -8 -9 -10 -11 -12 -13 -13 -13 -14 -14 -14 -14 -15 -15 -15 -15
-1 -1 -2 -2 -2 -2 -3 -3 -3 -3 -3 -3 -3 -3 -4 -4 -4 -5 -5 -6 -6 -7 -7 -8 -8 -8 -9 -10 -11 -11 -12 -13 -13 -13 -14 -14 -14 -14 -14 -14 -15 -15 -15

GFSMW_700_temp_012.txt.gz
Temp
7 6 5 6 6 5 5 4 4 4 5 6 6 6 6 6 6 6 6 6 5 5 5 6 6 5 5 5 4 4 4 4 4 4 4 4 4 4 4 4 4 4 4
7 7 6 4 6 6 4 4 4 5 5 6 6 6 5 6 6 6 5 5 5 5 5 5 5 5 4 4 4 4 4 3 3 3 3 3 4 3 3 3 3 3 3
6 6 6 5 5 6 5 4 4 4 5 5 5 5 5 6 6 6 5 5 5 5 5 5 4 4 3 3 3 3 3 3 3 3 3 3 3 3 2 2 2 2 2
5 6 7 6 4 4 5 4 4 4 4 5 5 5 5 5 5 5 5 4 4 4 4 4 3 2 2 3 3 2 2 2 3 2 2 2 2 2 2 2 2 2 1
3 4 4 5 4 4 2 4 3 3 4 5 5 5 5 5 5 5 4 4 4 4 4 3 1 2 2 2 2 2 2 2 2 2 2 2 2 2 2 2 2 1 1
2 2 2 2 3 4 3 3 2 2 3 4 5 5 4 5 5 5 4 4 4 4 3 2 2 2 2 2 2 2 2 2 2 2 2 1 1 1 1 1 1 1 1
2 2 1 1 1 3 4 3 2 2 3 4 4 4 4 5 5 5 4 4 4 3 3 2 1 1 2 2 2 2 1 1 1 1 1 1 1 1 1 0 1 1 1
1 1 1 1 1 1 2 3 2 2 3 4 4 4 4 4 5 4 4 3 3 3 3 2 1 1 1 1 1 1 1 1 1 1 1 1 0 0 0 -0 -0 0 0
0 0 0 0 1 1 0 1 1 2 3 4 3 3 4 4 4 4 3 3 3 3 2 2 1 1 1 1 1 1 1 1 1 1 0 0 -0 -0 -1 -1 -2 -2 -1
0 -0 -0 -0 0 1 1 0 1 2 2 4 3 3 4 4 4 4 3 3 3 2 2 2 2 1 1 1 1 1 1 1 1 0 -0 -0 -0 -1 -2 -2 -2 -3 -3
-0 -0 -0 -0 0 0 1 1 1 2 2 3 3 4 4 4 4 3 4 2 2 2 2 2 1 1 1 1 1 0 0 0 -0 -0 -1 -1 -1 -2 -2 -3 -3 -3 -4
-2 -2 -2 -1 -1 0 1 1 1 2 3 3 3 3 4 3 4 4 2 1 2 2 2 1 1 1 0 0 0 -0 -0 -0 -1 -1 -1 -1 -2 -2 -3 -3 -3 -4 -5
-2 -3 -2 -1 -1 0 1 1 0 0 2 3 3 3 3 4 4 2 2 1 1 2 1 0 0 -0 0 -0 -0 -1 -1 -1 -1 -1 -2 -2 -3 -3 -3 -4 -5 -5 -6
-3 -3 -1 -1 -1 1 0 -1 1 1 2 2 3 3 3 3 4 2 1 2 1 1 0 -0 -1 -1 -1 -0 -1 -1 -1 -1 -2 -2 -2 -3 -3 -3 -4 -5 -6 -6 -7
-3 -2 -2 -2 -2 -1 -1 -0 0 2 2 2 3 3 3 2 2 0 2 1 1 -0 -1 -1 -1 -1 -1 -1 -1 -2 -2 -2 -2 -3 -3 -3 -4 -4 -5 -6 -6 -7 -8
-3 -3 -2 -3 -2 -1 0 2 1 0 2 2 3 3 2 2 1 1 1 -0 -1 -1 -1 -1 -2 -1 -2 -2 -2 -2 -2 -3 -3 -3 -3 -4 -5 -6 -6 -7 -8 -9 -10
-3 -3 -2 -2 -1 -1 -1 0 0 1 2 2 3 2 1 2 1 1 0 -1 -1 -1 -1 -2 -2 -2 -2 -2 -2 -2 -3 -3 -3 -3 -4 -5 -6 -6 -7 -8 -9 -10 -11
-3 -3 -2 -2 -1 0 0 1 0 1 2 2 1 1 -0 -0 -1 -2 -1 -1 -2 -2 -2 -2 -2 -2 -3 -3 -3 -3 -3 -3 -4 -5 -5 -6 -6 -7 -8 -9 -10 -11 -11
-3 -2 -1 -1 0 2 0 1 1 1 1 0 1 0 -0 -0 -2 -2 -2 -2 -2 -2 -2 -2 -2 -3 -3 -3 -3 -3 -3 -4 -5 -6 -6 -7 -8 -8 -10 -11 -11 -11 -12
-1 -1 -1 -1 0 1 0 0 1 1 0 0 -1 -1 -2 -2 -2 -2 -2 -2 -2 -2 -2 -2 -3 -3 -3 -3 -3 -3 -4 -5 -5 -6 -7 -8 -9 -10 -11 -11 -11 -11 -12
-1 -0 -0 0 1 0 -1 -1 -1 -1 -1 -1 -2 -2 -2 -2 -2 -2 -3 -2 -2 -2 -2 -3 -3 -3 -3 -4 -4 -5 -5 -5 -6 -7 -8 -9 -10 -11 -11 -12 -12 -12 -13
-1 -1 -1 -0 -1 -1 -2 -2 -2 -1 -2 -2 -3 -3 -2 -2 -3 -3 -2 -2 -2 -3 -3 -3 -3 -4 -4 -5 -5 -5 -6 -6 -7 -8 -9 -10 -11 -11 -12 -12 -13 -13 -13
-1 -0 -1 -1 -2 -2 -2 -2 -2 -2 -2 -2 -3 -2 -3 -2 -2 -2 -2 -2 -3 -3 -3 -4 -4 -5 -5 -5 -6 -6 -7 -8 -8 -9 -10 -11 -11 -12 -12 -13 -13 -13 -13
-1 -1 -1 -2 -2 -2 -2 -2 -2 -2 -3 -3 -2 -2 -2 -2 -2 -2 -3 -3 -3 -3 -4 -5 -5 -5 -6 -6 -7 -7 -8 -9 -9 -10 -11 -11 -12 -12 -12 -13 -14 -14 -14
-1 -1 -1 -2 -2 -2 -2 -2 -2 -2 -2 -2 -2 -2 -2 -3 -3 -3 -3 -3 -4 -4 -5 -5 -5 -6 -6 -7 -7 -8 -8 -9 -10 -10 -11 -12 -12 -12 -13 -13 -14 -14 -14
-1 -1 -1 -2 -2 -2 -2 -2 -2 -2 -2 -2 -2 -3 -3 -3 -3 -3 -4 -4 -5 -5 -5 -6 -6 -7 -7 -7 -8 -9 -10 -10 -11 -11 -12 -12 -12 -13 -13 -13 -13 -14 -14

GFSMW_700_temp_018.txt.gz
Temp
7 7 7 6 6 6 5 5 5 4 5 5 5 5 5 6 5 6 6 6 5 5 5 5 5 5 5 5 5 4 4 3 3 3 3 4 4 4 3 3 3 3 3
7 6 6 6 6 6 6 6 5 4 4 4 5 4 4 5 5 5 5 5 5 5 5 5 4 4 4 4 4 4 3 3 3 3 3 3 3 3 3 3 3 3 3
7 7 6 6 6 6 6 5 5 4 4 4 4 4 4 4 5 5 5 5 5 5 5 4 4 4 3 4 3 3 2 2 2 2 2 3 3 3 3 3 2 2 2
7 7 6 6 6 5 5 5 5 5 4 4 4 4 4 4 4 5 5 4 4 4 4 4 4 3 3 3 3 2 1 1 2 2 2 2 2 2 2 2 2 2 2
5 5 5 6 6 5 5 4 4 4 4 4 4 4 4 3 3 4 4 4 4 4 4 4 3 3 3 2 1 1 1 1 1 1 2 2 2 2 2 2 1 1 1
4 4 4 4 4 4 5 5 4 3 3 3 3 3 3 4 3 3 3 3 3 4 4 4 3 3 2 2 2 1 1 1 1 1 1 1 1 1 1 1 1 1 1
3 3 3 2 2 3 3 3 3 3 3 3 3 2 3 3 3 2 3 3 3 3 3 3 3 3 2 1 1 1 0 0 1 1 1 1 1 1 1 1 1 1 1
2 2 2 1 1 1 1 2 2 2 2 2 2 2 2 2 2 2 2 3 3 3 3 3 2 2 2 1 1 1 0 0 0 1 1 1 1 1 1 1 1 1 0
1 1 1 1 2 1 1 1 1 1 1 1 2 2 2 2 2 2 2 2 2 3 3 2 2 2 1 1 1 1 0 -1 0 0 0 0 0 0 0 0 0 0 0
-0 -0 -0 0 1 1 1 0 0 1 1 1 1 1 1 1 2 2 2 2 2 2 3 2 2 1 1 1 0 0 -0 -1 -0 -0 -0 -0 -0 -0 -0 -0 -1 -1 -0
-1 -1 -1 -1 -1 -0 -0 0 -0 0 1 0 1 2 1 1 1 1 1 2 2 2 2 2 2 1 1 1 0 -0 -1 -1 -1 -1 -1 -1 -1 -1 -1 -1 -1 -1 -1
-2 -2 -2 -2 -1 -1 -0 -0 -1 -0 0 0 1 1 1 1 1 1 1 1 2 2 2 2 1 2 1 1 -0 -1 -1 -1 -1 -1 -1 -1 -1 -1 -1 -1 -2 -2 -2
-3 -3 -3 -2 -2 -2 -1 -1 -1 -1 -1 0 1 1 1 1 -0 1 1 1 2 2 2 2 1 2 0 -0 -0 -1 -1 -1 -2 -2 -2 -2 -2 -2 -2 -2 -2 -3 -3
-2 -3 -2 -3 -2 -2 -2 -2 -2 -1 -1 -0 -0 -0 -0 1 -0 -0 1 2 2 2 2 1 1 0 -0 -0 -1 -1 -2 -2 -2 -2 -2 -2 -2 -2 -2 -3 -3 -3 -3
-4 -4 -4 -3 -3 -3 -3 -3 -2 -1 -1 -1 -1 -0 -0 0 -1 -1 1 2 2 1 1 1 0 0 -0 -1 -1 -3 -2 -2 -2 -2 -3 -3 -2 -3 -3 -3 -3 -3 -4
-3 -4 -4 -4 -3 -3 -3 -3 -3 -2 -1 -1 -1 -1 -1 -0 -1 0 2 1 1 1 1 1 -0 -0 -2 -2 -3 -3 -2 -2 -2 -3 -3 -3 -3 -3 -4 -4 -4 -4 -5
-3 -4 -3 -3 -3 -3 -2 -2 -3 -2 -1 -1 -0 -1 -1 -1 0 0 0 1 1 1 1 -1 -1 -2 -2 -4 -4 -3 -2 -3 -3 -3 -3 -4 -4 -4 -4 -4 -5 -6 -7
-3 -4 -3 -4 -4 -3 -2 -2 -2 -2 -1 -2 -1 -1 -1 -1 -0 1 1 1 0 0 -1 -2 -2 -2 -3 -3 -3 -3 -4 -3 -3 -3 -4 -4 -4 -4 -5 -5 -6 -6 -8
-4 -3 -2 -3 -3 -3 -2 -3 -3 -2 -2 -1 -1 -0 -1 0 1 0 -1 -2 -2 -2 -2 -2 -3 -3 -3 -4 -4 -3 -3 -3 -4 -4 -4 -5 -5 -5 -5 -6 -6 -8 -8
-2 -2 -2 -1 -1 -1 -2 -2 -2 -1 -1 -1 -1 -0 -0 -0 -1 -1 -2 -2 -1 -2 -3 -3 -3 -4 -3 -4 -3 -3 -4 -4 -5 -5 -5 -5 -5 -6 -6 -7 -8 -8 -9
-1 -1 -2 -2 -1 -2 -2 -2 -1 -1 -1 -1 -2 -2 -2 -2 -2 -2 -3 -2 -3 -3 -4 -4 -4 -3 -4 -3 -4 -4 -4 -5 -5 -6 -6 -6 -6 -7 -8 -8 -9 -10 -10
-1 -1 -2 -2 -2 -2 -2 -2 -2 -2 -2 -2 -2 -3 -3 -3 -3 -3 -3 -4 -4 -4 -3 -3 -3 -4 -4 -4 -5 -5 -5 -6 -6 -6 -6 -6 -7 -8 -9 -9 -10 -11 -11
-1 -1 -1 -1 -1 -2 -3 -2 -2 -3 -3 -3 -3 -3 -3 -3 -3 -3 -3 -3 -3 -3 -4 -4 -4 -4 -5 -5 -6 -6 -6 -6 -6 -6 -7 -8 -9 -9 -10 -11 -11 -12 -12
-1 -1 -1 -1 -2 -2 -2 -3 -3 -3 -3 -3 -3 -3 -3 -3 -3 -3 -3 -3 -4 -4 -5 -5 -6 -6 -6 -6 -6 -6 -6 -7 -8 -8 -9 -10 -10 -11 -11 -12 -12 -12 -12
-2 -2 -2 -2 -2 -2 -3 -3 -3 -3 -3 -3 -3 -3 -3 -3 -4 -4 -4 -5 -5 -5 -5 -6 -6 -5 -5 -6 -6 -7 -8 -8 -9 -10 -10 -11 -11 -12 -12 -13 -13 -13 -13
-2 -2 -2 -2 -3 -3 -3 -3 -3 -3 -3 -3 -4 -4 -4 -4 -4 -5 -5 -5 -5 -5 -5 -5 -6 -6 -6 -7 -8 -9 -9 -10 -11 -12 -12 -12 -13 -13 -13 -13 -13 -13 -13